Weather Roundup
Issued by NWS Chicago, IL

Home | Current Version | Previous Version | Text Only | Print | Product List | Glossary On
Versions: 1 2 3 4 5 6 7 8 9 10 11 12 13 14 15 16 17 18 19 20 21 22 23 24 25 26 27 28 29 30 31 32 33 34 35 36 37 38 39 40 41 42 43 44 45 46 47 48 49 50
000
NZUS59 KLOT 310610
HRRLOT

CHICAGO AREA WEATHER ROUNDUP
NATIONAL WEATHER SERVICE CHICAGO/ROMEOVILLE IL
100 AM CDT THU JUL 31 2014

NOTE: "FAIR" INDICATES FEW OR NO CLOUDS BELOW 12,000 FEET WITH NO
SIGNIFICANT WEATHER AND/OR OBSTRUCTIONS TO VISIBILITY.

* THESE STATIONS ARE NOT UNDER NWS QUALITY CONTROL. THEY ALSO MAY NOT
  REPORT WEATHER SUCH AS PRECIPITATION OR FOG.

ILZ005-006-012>014-019>023-310700-
NORTHEAST ILLINOIS

CITY           SKY/WX    TMP DP  RH WIND       PRES   REMARKS
OHARE          CLEAR     62  55  77 S5        30.04R
6HR MIN TEMP:  62; 6HR MAX TEMP:  73;

MIDWAY         CLEAR     66  61  84 CALM      30.04R
6HR MIN TEMP:  66; 6HR MAX TEMP:  72;

AURORA         CLEAR     56  53  90 CALM      30.05R FOG
6HR MIN TEMP:  56; 6HR MAX TEMP:  75;

LANSING*       CLEAR     56  55  94 CALM      30.05S FOG
JOLIET*        CLEAR     58  56  95 CALM      30.06S FOG
WAUKEGAN       CLEAR     58  56  93 VRB3      30.02F
6HR MIN TEMP:  56; 6HR MAX TEMP:  65;

DUPAGE AIRPORT CLEAR     61  58  90 S5        30.04R
6HR MIN TEMP:  60; 6HR MAX TEMP:  77;

WHEELING       CLEAR     61  56  83 CALM      30.05S
6HR MIN TEMP:  60; 6HR MAX TEMP:  70;

KANKAKEE*      CLEAR     59  58  97 CALM      30.06S FOG
MORRIS*        CLEAR     60  60 100 CALM      30.04S
LEWIS AIRPORT* CLEAR     59  57  93 S3        30.05S FOG
NORTHERLY IS     N/A     64  60  87 S2          N/A
$$

WIZ051-052-058>065-066-070>072-310700-
SOUTHEAST WISCONSIN

CITY           SKY/WX    TMP DP  RH WIND       PRES   REMARKS
MILWAUKEE      PTCLDY    61  55  81 SW6       30.01F
6HR MIN TEMP:  60; 6HR MAX TEMP:  68;

KENOSHA*       CLEAR     57  56  96 SW5       30.03S
RACINE*        CLEAR     60  56  86 SW8       30.04S
BURLINGTON     CLEAR     51  51  99 CALM      30.02F
WAUKESHA       CLOUDY    57  52  82 SW3       30.03S
WEST BEND      CLOUDY    63  54  72 CALM      30.01S
$$

INZ001>003-010>013-019-020-310700-
NORTHWEST INDIANA

CITY           SKY/WX    TMP DP  RH WIND       PRES   REMARKS
GARY*          CLEAR     59  57  94 CALM      30.05S FOG
6HR MIN TEMP:  59; 6HR MAX TEMP:  68;

MICHIGAN CITY* NOT AVBL
RENSSELAER*    NOT AVBL
VALPARAISO     PTCLDY    57  55  93 CALM      30.05S
$$

LMZ740>746-310700-
SOUTHERN LAKE MICHIGAN

STATION/POSITION TIME  SKY/WX   TEMP WIND        PRES    VSBY
                                AIR  DIR/SP/G
                 (UTC)          (F)  (DEG/KT/KT) (MB)    (MI)
HARRISON CRIB    0600            65  170/  7/  8   N/A
BURNHAM HARBOR   0600            64   CALM  /  4   N/A
CALUMET HARBOR   0600            65  160/  2/  2 1016.0F
BURNS HARBOR     NOT AVBL
MICHIGAN CITY    0600            63  150/  3/  4   N/A
$$

ABBREVIATIONS USED IN REMARKS
   TC - TEMPERATURE IN CELSIUS
  WCI - WIND CHILL INDEX
   HX - HEAT INDEX
  VSB - VISIBILITY
$$


USA.gov is the U.S. government's official web portal to all federal, state and local government web resources and services.